When you browse on this site, cookies collect data to enhance your experience and personalize the content and advertising you see.
Visit our Privacy Policy to learn more. By continuing to use the site, you agree to this use of cookies and data.
  • In Austria
  • List of Countries
  • For 7 days
  • Water Temperature
  • Weather Map
  • News
  • Weather Widgets
  • user-avatar
    Login

    Hourly Weather Igls

    Today, 25 February, Tuesday

    Time Temperature Precipitation Wind Pressure Humidity
    00:00 +6°C° 0 mm 2 mps 681 mmHg 73%
    01:00 +5°C° 0 mm 2 mps 681 mmHg 74%
    02:00 +5°C° 0 mm 2 mps 680 mmHg 75%
    03:00 +5°C° 0 mm 2 mps 679 mmHg 76%
    04:00 +5°C° 0 mm 2 mps 679 mmHg 77%
    05:00 +5°C° 0 mm 2 mps 679 mmHg 77%
    06:00 +4°C° 0 mm 2 mps 679 mmHg 78%
    07:00 +4°C° 0 mm 2 mps 678 mmHg 79%
    08:00 +6°C° 0 mm 1 mps 678 mmHg 78%
    09:00 +8°C° 0 mm 1 mps 678 mmHg 77%
    10:00 +9°C° 0 mm 1 mps 678 mmHg 77%
    11:00 +9°C° 0 mm 1 mps 677 mmHg 76%
    12:00 +10°C° 0 mm 1 mps 677 mmHg 76%
    13:00 +10°C° 0 mm 1 mps 677 mmHg 75%
    14:00 +10°C° 0.1 mm 1 mps 676 mmHg 77%
    15:00 +10°C° 0.1 mm 1 mps 675 mmHg 78%
    16:00 +9°C° 0.1 mm 1 mps 675 mmHg 80%
    17:00 +8°C° 0.2 mm 1 mps 675 mmHg 85%
    18:00 +7°C° 0.2 mm 1 mps 674 mmHg 90%
    19:00 +6°C° 0.2 mm 1 mps 674 mmHg 95%
    20:00 +6°C° 0.4 mm 1 mps 674 mmHg 95%
    21:00 +6°C° 0.4 mm 1 mps 673 mmHg 95%
    22:00 +5°C° 0.4 mm 1 mps 673 mmHg 95%
    23:00 +5°C° 1.2 mm 1 mps 673 mmHg 96%

    Tomorrow, 26 February, Wednesday

    Time Temperature Precipitation Wind Pressure Humidity
    00:00 +5°C° 1.2 mm 1 mps 672 mmHg 96%
    01:00 +4°C° 1.2 mm 1 mps 672 mmHg 97%
    02:00 +4°C° 1.2 mm 1 mps 671 mmHg 97%
    03:00 +3°C° 1.2 mm 1 mps 671 mmHg 96%
    04:00 +2°C° 1.2 mm 2 mps 670 mmHg 95%
    05:00 +1°C° 0.4 mm 2 mps 670 mmHg 95%
    06:00 +1°C° 0.4 mm 1 mps 669 mmHg 95%
    07:00 0°C° 0.4 mm 1 mps 669 mmHg 95%
    08:00 -1°C° 0.4 mm 2 mps 669 mmHg 87%
    09:00 +1°C° 0.4 mm 2 mps 669 mmHg 79%
    10:00 0°C° 0.4 mm 3 mps 669 mmHg 71%
    11:00 +1°C° 0.1 mm 3 mps 670 mmHg 66%
    12:00 0°C° 0.1 mm 4 mps 670 mmHg 61%
    13:00 0°C° 0.1 mm 5 mps 670 mmHg 56%
    14:00 -1°C° 0.2 mm 4 mps 670 mmHg 60%
    15:00 -2°C° 0.2 mm 4 mps 670 mmHg 64%
    16:00 -3°C° 0.2 mm 4 mps 671 mmHg 67%
    17:00 -4°C° 0.2 mm 3 mps 671 mmHg 75%
    18:00 -4°C° 0.2 mm 2 mps 672 mmHg 83%
    19:00 -5°C° 0.2 mm 2 mps 673 mmHg 91%
    20:00 -5°C° 0.4 mm 2 mps 673 mmHg 92%
    21:00 -5°C° 0.4 mm 2 mps 674 mmHg 93%
    22:00 -4°C° 0.4 mm 2 mps 675 mmHg 93%
    23:00 -5°C° 0.3 mm 2 mps 676 mmHg 93%

    Day after tomorrow, 27 February, Thursday

    Time Temperature Precipitation Wind Pressure Humidity
    00:00 -5°C° 0.3 mm 2 mps 676 mmHg 93%
    01:00 -5°C° 0.3 mm 2 mps 677 mmHg 93%
    02:00 -5°C° 0.1 mm 2 mps 677 mmHg 92%
    03:00 -6°C° 0.1 mm 2 mps 677 mmHg 90%
    04:00 -6°C° 0.1 mm 2 mps 677 mmHg 88%
    05:00 -6°C° 0 mm 2 mps 677 mmHg 86%
    06:00 -6°C° 0 mm 2 mps 677 mmHg 84%
    07:00 -6°C° 0 mm 2 mps 678 mmHg 82%
    08:00 -5°C° 0 mm 2 mps 677 mmHg 76%
    09:00 -1°C° 0 mm 1 mps 677 mmHg 69%
    10:00 0°C° 0 mm 1 mps 677 mmHg 63%
    11:00 -1°C° 0 mm 2 mps 677 mmHg 61%
    12:00 0°C° 0 mm 3 mps 676 mmHg 59%
    13:00 0°C° 0 mm 3 mps 675 mmHg 56%
    14:00 -1°C° 0.3 mm 4 mps 674 mmHg 62%
    15:00 -2°C° 0.3 mm 4 mps 673 mmHg 68%
    16:00 -2°C° 0.3 mm 4 mps 672 mmHg 73%
    17:00 -3°C° 0.4 mm 4 mps 671 mmHg 76%
    18:00 -4°C° 0.4 mm 5 mps 671 mmHg 78%
    19:00 -5°C° 0.4 mm 5 mps 671 mmHg 80%
    20:00 -4°C° 0.1 mm 4 mps 671 mmHg 82%
    21:00 -4°C° 0.1 mm 4 mps 671 mmHg 84%
    22:00 -4°C° 0.1 mm 3 mps 671 mmHg 86%
    23:00 -4°C° 0.5 mm 3 mps 672 mmHg 88%

    28 February, Friday

    Time Temperature Precipitation Wind Pressure Humidity
    00:00 -4°C° 0.5 mm 3 mps 673 mmHg 91%
    01:00 -4°C° 0.5 mm 3 mps 675 mmHg 93%
    02:00 -4°C° 0.5 mm 3 mps 675 mmHg 93%
    03:00 -5°C° 0.5 mm 3 mps 676 mmHg 94%
    04:00 -6°C° 0.5 mm 3 mps 677 mmHg 95%
    05:00 -5°C° 0.3 mm 2 mps 678 mmHg 95%
    06:00 -5°C° 0.3 mm 2 mps 679 mmHg 95%
    07:00 -5°C° 0.3 mm 2 mps 679 mmHg 95%
    08:00 -4°C° 0.1 mm 2 mps 680 mmHg 86%
    09:00 -3°C° 0.1 mm 2 mps 681 mmHg 78%
    10:00 -2°C° 0.1 mm 3 mps 682 mmHg 69%
    11:00 -1°C° 0 mm 2 mps 682 mmHg 64%
    12:00 +1°C° 0 mm 2 mps 682 mmHg 58%
    13:00 +2°C° 0 mm 2 mps 683 mmHg 53%
    14:00 +3°C° 0 mm 1 mps 682 mmHg 53%
    15:00 +3°C° 0 mm 1 mps 682 mmHg 53%
    16:00 +2°C° 0 mm 0 mps 682 mmHg 53%
    17:00 +2°C° 0 mm 1 mps 682 mmHg 57%
    18:00 0°C° 0 mm 1 mps 682 mmHg 61%
    19:00 -3°C° 0 mm 2 mps 681 mmHg 65%
    20:00 -3°C° 0 mm 2 mps 681 mmHg 65%
    21:00 -2°C° 0 mm 2 mps 682 mmHg 66%
    22:00 -2°C° 0 mm 2 mps 682 mmHg 66%
    23:00 -2°C° 0 mm 2 mps 681 mmHg 68%

    29 February, Saturday

    Time Temperature Precipitation Wind Pressure Humidity
    00:00 -2°C° 0 mm 3 mps 681 mmHg 69%
    01:00 -2°C° 0 mm 3 mps 681 mmHg 70%
    02:00 -2°C° 0 mm 3 mps 680 mmHg 70%
    03:00 -2°C° 0 mm 3 mps 680 mmHg 71%
    04:00 -2°C° 0 mm 3 mps 679 mmHg 72%
    05:00 -2°C° 0 mm 3 mps 679 mmHg 73%
    06:00 -2°C° 0 mm 3 mps 678 mmHg 73%
    07:00 -2°C° 0 mm 3 mps 678 mmHg 74%
    08:00 -1°C° 0 mm 3 mps 678 mmHg 74%
    09:00 +1°C° 0 mm 3 mps 678 mmHg 74%
    10:00 +1°C° 0 mm 4 mps 678 mmHg 74%
    11:00 +3°C° 0 mm 3 mps 677 mmHg 74%
    12:00 +4°C° 0 mm 3 mps 676 mmHg 75%
    13:00 +5°C° 0 mm 3 mps 676 mmHg 75%
    14:00 +4°C° 0 mm 3 mps 675 mmHg 75%
    15:00 +4°C° 0 mm 4 mps 675 mmHg 74%
    16:00 +4°C° 0 mm 4 mps 674 mmHg 74%
    17:00 +1°C° 0 mm 4 mps 674 mmHg 75%
    18:00 +1°C° 0 mm 3 mps 674 mmHg 77%
    19:00 -1°C° 0 mm 3 mps 674 mmHg 78%
    20:00 -1°C° 0.3 mm 3 mps 675 mmHg 83%
    21:00 -1°C° 0.3 mm 2 mps 676 mmHg 87%
    22:00 +1°C° 0.3 mm 1 mps 676 mmHg 92%
    23:00 +1°C° 0.8 mm 1 mps 676 mmHg 93%

    1 March, Sunday

    Time Temperature Precipitation Wind Pressure Humidity
    00:00 +1°C° 0.8 mm 1 mps 676 mmHg 95%
    01:00 0°C° 0.8 mm 0 mps 676 mmHg 96%
    02:00 +1°C° 0.5 mm 1 mps 676 mmHg 96%
    03:00 0°C° 0.5 mm 1 mps 676 mmHg 96%
    04:00 0°C° 0.5 mm 1 mps 675 mmHg 95%
    05:00 0°C° 0.1 mm 1 mps 676 mmHg 94%
    06:00 -1°C° 0.1 mm 1 mps 676 mmHg 93%
    07:00 -2°C° 0.1 mm 1 mps 676 mmHg 92%
    08:00 0°C° 0 mm 1 mps 676 mmHg 88%
    09:00 +1°C° 0 mm 1 mps 676 mmHg 83%
    10:00 +3°C° 0 mm 1 mps 677 mmHg 79%
    11:00 +4°C° 0 mm 1 mps 677 mmHg 79%
    12:00 +4°C° 0 mm 1 mps 677 mmHg 78%
    13:00 +5°C° 0 mm 1 mps 676 mmHg 78%
    14:00 +5°C° 0 mm 1 mps 676 mmHg 78%
    15:00 +5°C° 0 mm 1 mps 676 mmHg 78%
    16:00 +5°C° 0 mm 1 mps 676 mmHg 77%
    17:00 +3°C° 0 mm 1 mps 676 mmHg 82%
    18:00 +1°C° 0 mm 1 mps 676 mmHg 86%
    19:00 -1°C° 0 mm 0 mps 676 mmHg 91%
    20:00 0°C° 0 mm 1 mps 676 mmHg 90%
    21:00 -1°C° 0 mm 1 mps 676 mmHg 88%
    22:00 -1°C° 0 mm 1 mps 676 mmHg 87%
    23:00 -1°C° 0 mm 1 mps 676 mmHg 88%
    Show more